Location: Unspecified
(41.5000°N, 0.0000°E)
Time: 16:19:21
(UTC+00:00)

deb Explorer IX - Pass Details

Date: 20 June 2019
Orbit: 539 x 1112 km, 38.8° (Epoch: 17 July)

Event Time Altitude Azimuth Distance (km) Brightness Sun altitude
Rises 17:35:30 0° 273° (W) 3,932 ? 20.0°
Reaches altitude 10° 17:38:21 10° 271° (W) 2,959 ? 19.5°
Maximum altitude 17:45:35 66° 191° (S) 1,133 ? 18.2°
Drops below altitude 10° 17:52:08 10° 110° (ESE) 2,689 ? 17.0°
Sets 17:54:37 0° 108° (ESE) 3,554 ? 16.5°
